Location: Brodeslavy
(49.9527°N, 13.5567°E)
Time: 04:27:36
(UTC+00:00)

PSLV R/B - Pass Details

Date: 17 June 2025
Orbit: 396 x 427 km, 97.7° (Epoch: 12 July)

Event Time Altitude Azimuth Distance (km) Brightness Sun altitude
Exits shadow 20:48:06 12° 179° (S) 1,417 5.4 -10.5°
Maximum altitude 20:51:03 58° 258° (WSW) 517 3.8 -10.7°
Drops below altitude 10° 20:54:21 10° 339° (NNW) 1,556 7.6 -11.0°
Sets 20:56:24 0° 344° (NNW) 2,427 8.9 -11.1°
